Regional Weather Roundup
Issued by NWS

Home | Current Version | Previous Version | Graphics & Text | Print | Product List | Glossary On
Versions: 1 2 3 4 5 6 7 8 9 10 11 12 13 14 15 16 17 18 19 20 21 22 23 24 25 26 27 28 29 30 31 32 33 34 35 36 37 38 39 40 41 42 43 44 45 46 47 48 49 50
610
ASUS43 KLSX 230307
RWRMO

WEATHER SUMMARY FOR MISSOURI
NATIONAL WEATHER SERVICE SPRINGFIELD MO
1000 PM CDT TUE AUG 22 2017

NOTE: "FAIR" INDICATES FEW OR NO CLOUDS BELOW 12,000 FEET WITH NO
       SIGNIFICANT WEATHER AND/OR OBSTRUCTIONS TO VISIBILITY.
       CURRENT SKY AND/OR WEATHER CONDITIONS ARE NOT AVAILABLE FOR
       CHILLICOTHE AND FARMINGTON.

MOZ001>031-035>038-043-044-053-054-230400-
...NORTHERN AND WESTERN MISSOURI...

CITY           SKY/WX    TMP DP  RH WIND       PRES   REMARKS
KANSAS CTY INT CLEAR     62  54  74 N8        30.14R
KANSAS C DTWN  CLEAR     67  58  72 N6        30.12R
LEE`S SUMMIT   CLEAR     68  57  68 MISG      30.13R
ST JOSEPH      CLEAR     59  57  93 N3        30.14R
CHILLICOTHE      N/A     60  58  92 CALM      30.13R
KIRKSVILLE     CLEAR     60  32  34 N5        30.12R

$$
MOZ066>068-077>081-088>096-101>105-230400-
...SOUTHWEST MISSOURI...

CITY           SKY/WX    TMP DP  RH WIND       PRES   REMARKS
SPRINGFIELD    CLOUDY    74  68  81 N10       30.08R
JOPLIN         PTCLDY    75  72  90 N7        30.08R
BRANSON        CLOUDY    75  70  83 CALM      30.08R

$$
MOZ032>034-039>042-045>050-055>058-069>072-230400-
...CENTRAL MISSOURI...

CITY           SKY/WX    TMP DP  RH WIND       PRES   REMARKS
COLUMBIA       CLEAR     67  56  67 N9        30.10R
JEFFERSON CITY CLEAR     69  64  84 NW3       30.08R
ROLLA          PTCLDY    68  64  87 CALM      30.09R
SEDALIA        CLEAR     66  63  90 N5        30.11R
WHITEMAN AFB   CLEAR     65  63  94 N6        30.10R
WARRENSBURG    CLEAR     64  57  77 NW3       30.11R
OSAGE BEACH    CLEAR     69  62  78 N5        30.09R

$$
MOZ051-052-059>065-230400-
...EAST CENTRAL MISSOURI...

CITY           SKY/WX    TMP DP  RH WIND       PRES   REMARKS
ST LOUIS INTL  CLEAR     72  61  68 N6        30.06R
SPIRIT OF STL  CLEAR     67  64  90 CALM      30.05R
ST CHARLES     CLEAR     67  61  81 NW7       30.05R

$$
MOZ072>076-082>087-097>100-106>115-230400-
...SOUTH CENTRAL AND SOUTHEAST MISSOURI...

CITY           SKY/WX    TMP DP  RH WIND       PRES   REMARKS
CAPE GIRARDEAU CLEAR     69  66  90 CALM      30.01R
FARMINGTON     CLEAR     70  66  87 NW3       30.07R
POPLAR BLUFF   CLEAR     73  70  90 N3        30.01R
WEST PLAINS    CLEAR     71  67  87 N5        30.08R

$$



USA.gov is the U.S. government's official web portal to all federal, state and local government web resources and services.